STARLINK-35881, 66830

Orbit data source: Space-Track

STARLINK-35881, 66830 is a payload satellite owned by SpaceX/Seattle (US) in LEO that was launched on Tue, 02 Dec 2025 UTC via an FALCON 9 launch vehicle from the Air Force Western Test Range (AFWTR). Payload-class satellites include a variety of spacecraft equipped with specific instruments for various scientific and technological missions. These include communications satellites like Starlink; space stations such as the ISS; scientific satellites like the Hubble; Earth observation satellites from companies like Planet Labs, Umbra, and HawkEye 360; GPS; miniature CubeSats for education and research; and military/defense satellites.

Loading next visibility...
Identifier
66830, 2025-280K
Orbit
LEO
Country
Flag of USUS
Related business
Manufacturer
SpaceX/Seattle
Mission
Operational Commercial Communications
Bus & Motor
STARLINK V2MO, Unknown motor
Mass
575 kg wet, ~530 kg dry
Launch date (UTC)
2025-12-02 (7 months ago)
Launch vehicle
FALCON 9
Launch site
Air Force Western Test Range (AFWTR)
Object type
Payload
Rocket body
Debris
Shape & HBR
Box + 2 Pan, 17.7 m
Radar Cross Section
36.964 m², Large (>1 m²)

Expand to show TLE details & history
Last TLE update: 10 hours ago

TLE from 10 hours ago
0 STARLINK-35881
1 66830U 25280K   26171.44551087  .00003640  00000-0  31267-3 0  9996
2 66830  70.0012  75.5426 0002803 271.3909  88.6929 14.98337827 31466
Epoch: 2026-06-20T10:41Z
TLE epoch observation values (Epoch: 2026-06-20T10:41:32.139Z)
Latitude
-0°
Longitude
6.49866°
Altitude
574.412 km
Speed
7.574 km/s
True Right ascension
05h 02m 10s
True Declination
0° 00' 00"
Sunlit
Object was in daylight at epoch
Visualization orbit readout
Latitude
Unknown
Longitude
Unknown
Altitude
Unknown
Speed
Unknown
Apparent Right ascension
Unknown
Apparent Declination
Unknown
Sunlit
N/A
Visualization observer readout
Local Sidereal Time
07:13:42
Azimuth
Unknown
Elevation
Unknown
Doppler factor
Unknown
Orbital elements
Apogee altitude
571.927 km
Perigee altitude
568.032 km
Semi-major axis
6,948.117 km
Eccentricity
0.00028
Inclination
70.0012°
RAAN
75.5426°
Arg. of periapsis
271.3909°
True anomaly
88.72501°
Mean anomaly
88.6929°
Eccentric anomaly
88.70896°
Mean motion
3.74751 °/min
Orbital period
96.06 mins
BSTAR
0.00031267
Loading maneuver chart data...
Computing Atmospheric mass density...
Loading historical data...
Loading historical data...
Loading historical data...
Loading historical data...
Loading historical data...
Loading historical data...
Loading historical data...

Documentation

Showing up to 5 results
|